Terminal Aerodrome Forecast
Issued by NWS Melbourne, FL

Home | Current Version | Previous Version | Text Only | Print | Product List | Glossary On
Versions: 1 2 3 4 5 6 7 8 9 10 11 12 13
964
FTUS42 KMLB 221459 AAA
TAFVRB
TAF AMD
KVRB 221459Z 2215/2312 06010KT P6SM VCTS SCT020CB BKN025 BKN100
      TEMPO 2215/2216 5SM TSRA BKN020CB
     FM221700 06011KT P6SM VCSH SCT030 BKN060
     FM230000 06007KT P6SM VCSH BKN035 BKN060=

USA.gov is the U.S. government's official web portal to all federal, state and local government web resources and services.